C/2017 T2 ( PanSTARRS )

Japanese version
Home page
Updated on February 13, 2018

---------------------------------------------------------------------

* Profile

Discovery Date October 2, 2017
Magnitude 19.9 mag
Discoverer Pan-STARRS 1 telescope (Haleakala)

* Pictures

* Orbital Elements

Epoch 2020 Apr. 21.0 TT = JDT 2458960.5
T 2020 May 5.03009 TT                                   MPCW
q   1.6150709            (2000.0)            P               Q
z  +0.0002665      Peri.   93.00044     -0.50995202     -0.40633797
 +/-0.0000201      Node    64.37535     -0.16287509     -0.81984295
e   0.9995695      Incl.   57.23368     +0.84464232     -0.40341912
From 131 observations 2017 Sept. 15-2018 Jan. 20, mean residual 0".3.

* Finding Charts

* Magnitudes Graph

        m1 = 5.0 + 5 log d + 10.0 log r

---------------------------------------------------------------------

The orbital elements are published on M.P.E.C. 2018-B155.
The charts are made with StellaNavigator Ver.10 (AstroArts).
The magnitudes graphs are made with Comet for Windows.

---------------------------------------------------------------------

Copyright(C) Seiichi Yoshida (comet@aerith.net). All rights reserved.